Weather History for Smithfield, NC

Change the Weather History Date:

Wednesday, June 19, 2013

  Actual Average Record
Temperature  
Mean Temperature 73 °F -  
Max Temperature 80 °F 88 °F 101 °F (1970)
Min Temperature 66 °F 65 °F 47 °F (1959)
Cooling Degree Days 8    
Growing Degree Days 23 (Base 50)    
Moisture  
Dew Point 66 °F    
Average Humidity 80    
Maximum Humidity 100    
Minimum Humidity 57    
Precipitation  
Precipitation 0.01 in - - ()
Sea Level Pressure  
Sea Level Pressure 30.00 in    
Wind  
Wind Speed 3 mph (NE)    
Max Wind Speed 10 mph    
Max Gust Speed -    
Visibility 10 miles    
Events Thunderstorm    
Averages and records for this station are not official NWS values.
T = Trace of Precipitation, MM = Missing Value Source: NWS Daily Summary

Daily Weather History Graph

Daily Weather History Graph

Search for Another Location

Airport:

Trip Planner

Search our weather history database for the weather conditions in past years. The results will help you decide how hot, cold, wet, or windy it might be!

Date:

Astronomy

Jun. 19, 2013 Rise Set
Actual Time 5:58 AM EDT 8:31 PM EDT
Civil Twilight 5:28 AM EDT 9:01 PM EDT
Nautical Twilight 4:50 AM EDT 9:39 PM EDT
Astronomical Twilight 4:09 AM EDT 10:20 PM EDT
Moon 4:28 PM EDT (6/19) 2:34 AM EDT (6/19)
Length of Visible Light 15h 33m
Length of Day
14h 33m
Waxing Gibbous, 80% of the Moon is Illuminated
Jun 19
Waxing Gibbous
Jun 23
Full
Jun 30
Last Quarter
Jul 8
New
Jul 15
First Quarter

Hourly Weather History & Observations

Time (EDT) Temp. Heat Index Dew Point Humidity Pressure Visibility Wind Dir Wind Speed Gust Speed Precip Events Conditions
12:15 AM 69.8 °F - 69.8 °F 100% 29.87 in 10.0 mi Calm Calm - N/A   Mostly Cloudy
12:35 AM 69.8 °F - 69.8 °F 100% 29.87 in 10.0 mi Calm Calm - N/A   Mostly Cloudy
12:55 AM 69.8 °F - 69.8 °F 100% 29.87 in 10.0 mi Calm Calm - N/A   Overcast
1:15 AM 69.8 °F - 69.8 °F 100% 29.87 in 7.0 mi Calm Calm - 0.01 in Thunderstorm Overcast
1:35 AM 69.8 °F - 69.8 °F 100% 29.87 in 10.0 mi Calm Calm - 0.01 in   Overcast
1:55 AM 69.8 °F - 69.8 °F 100% 29.87 in 10.0 mi North 6.9 mph - 0.01 in   Overcast
2:15 AM 68.0 °F - 68.0 °F 100% 29.88 in 10.0 mi Calm Calm - N/A   Overcast
2:35 AM 68.0 °F - 68.0 °F 100% 29.88 in 10.0 mi Calm Calm - N/A   Overcast
2:55 AM 68.0 °F - 68.0 °F 100% 29.88 in 10.0 mi North 3.5 mph - N/A   Overcast
3:15 AM 68.0 °F - 68.0 °F 100% 29.88 in 10.0 mi NNW 3.5 mph - N/A   Overcast
3:35 AM 68.0 °F - 68.0 °F 100% 29.88 in 10.0 mi Calm Calm - N/A   Overcast
3:55 AM 68.0 °F - 68.0 °F 100% 29.88 in 10.0 mi Calm Calm - N/A   Scattered Clouds
4:15 AM 68.0 °F - 68.0 °F 100% 29.88 in 10.0 mi Calm Calm - N/A   Clear
4:35 AM 68.0 °F - 68.0 °F 100% 29.89 in 10.0 mi Calm Calm - N/A   Clear
4:55 AM 68.0 °F - 68.0 °F 100% 29.89 in 10.0 mi North 3.5 mph - N/A   Clear
5:15 AM 66.2 °F - 66.2 °F 100% 29.90 in 10.0 mi North 4.6 mph - N/A   Clear
5:35 AM 66.2 °F - 66.2 °F 100% 29.91 in 10.0 mi North 3.5 mph - N/A   Clear
5:55 AM 66.2 °F - 66.2 °F 100% 29.92 in 10.0 mi Calm Calm - N/A   Scattered Clouds
6:15 AM 66.2 °F - 66.2 °F 100% 29.93 in 10.0 mi Calm Calm - N/A   Mostly Cloudy
6:35 AM 66.2 °F - 66.2 °F 100% 29.93 in 10.0 mi North 3.5 mph - N/A   Mostly Cloudy
6:55 AM 66.2 °F - 66.2 °F 100% 29.94 in 10.0 mi Calm Calm - N/A   Mostly Cloudy
7:15 AM 68.0 °F - 68.0 °F 100% 29.95 in 10.0 mi Calm Calm - N/A   Scattered Clouds
7:35 AM 68.0 °F - 68.0 °F 100% 29.96 in 10.0 mi NNE 5.8 mph - N/A   Clear
7:55 AM 69.8 °F - 66.2 °F 88% 29.97 in 10.0 mi NE 5.8 mph - N/A   Scattered Clouds
8:15 AM 69.8 °F - 66.2 °F 88% 29.98 in 10.0 mi NE 4.6 mph - N/A   Clear
8:35 AM 71.6 °F - 64.4 °F 78% 29.99 in 10.0 mi NE 6.9 mph - N/A   Scattered Clouds
8:55 AM 71.6 °F - 64.4 °F 78% 30.00 in 10.0 mi North 8.1 mph - N/A   Mostly Cloudy
9:15 AM 71.6 °F - 64.4 °F 78% 30.00 in 10.0 mi NNE 8.1 mph - N/A   Mostly Cloudy
9:35 AM 71.6 °F - 64.4 °F 78% 30.00 in 10.0 mi NNE 9.2 mph - N/A   Scattered Clouds
9:55 AM 73.4 °F - 64.4 °F 73% 30.00 in 10.0 mi NE 8.1 mph - N/A   Scattered Clouds
10:15 AM 73.4 °F - 64.4 °F 73% 30.01 in 10.0 mi NE 5.8 mph - N/A   Mostly Cloudy
10:35 AM 73.4 °F - 62.6 °F 69% 30.01 in 10.0 mi NE 9.2 mph - N/A   Scattered Clouds
10:55 AM 75.2 °F - 62.6 °F 65% 30.02 in 10.0 mi NE 8.1 mph - N/A   Scattered Clouds
11:15 AM 77.0 °F - 62.6 °F 61% 30.02 in 10.0 mi NE 9.2 mph - N/A   Scattered Clouds
11:35 AM 77.0 °F - 62.6 °F 61% 30.03 in 10.0 mi NNE 6.9 mph - N/A   Scattered Clouds
11:55 AM 77.0 °F - 62.6 °F 61% 30.04 in 10.0 mi North 10.4 mph - N/A   Mostly Cloudy
12:15 PM 77.0 °F - 62.6 °F 61% 30.03 in 10.0 mi NE 5.8 mph - N/A   Scattered Clouds
12:35 PM 77.0 °F - 62.6 °F 61% 30.03 in 10.0 mi ENE 5.8 mph - N/A   Scattered Clouds
12:55 PM 78.8 °F - 62.6 °F 57% 30.03 in 10.0 mi NE 6.9 mph - N/A   Scattered Clouds
1:15 PM 78.8 °F - 62.6 °F 57% 30.03 in 10.0 mi NE 5.8 mph - N/A   Scattered Clouds
1:35 PM 78.8 °F - 64.4 °F 61% 30.04 in 10.0 mi Calm Calm - N/A   Mostly Cloudy
1:55 PM 78.8 °F - 64.4 °F 61% 30.04 in 10.0 mi NE 5.8 mph - N/A   Overcast
2:15 PM 78.8 °F - 64.4 °F 61% 30.04 in 10.0 mi NNE 6.9 mph - N/A   Mostly Cloudy
2:35 PM 78.8 °F - 64.4 °F 61% 30.04 in 10.0 mi NNE 5.8 mph - N/A   Mostly Cloudy
2:55 PM 78.8 °F - 64.4 °F 61% 30.04 in 10.0 mi NNE 6.9 mph - N/A   Mostly Cloudy
3:15 PM 78.8 °F - 64.4 °F 61% 30.04 in 10.0 mi NE 6.9 mph - N/A   Mostly Cloudy
3:35 PM 80.6 °F 82.3 °F 64.4 °F 58% 30.04 in 10.0 mi NE 6.9 mph - N/A   Mostly Cloudy
3:55 PM 78.8 °F - 64.4 °F 61% 30.03 in 10.0 mi NNE 10.4 mph - N/A   Scattered Clouds
4:15 PM 78.8 °F - 64.4 °F 61% 30.03 in 10.0 mi East 4.6 mph - N/A   Scattered Clouds
4:35 PM 78.8 °F - 64.4 °F 61% 30.03 in 10.0 mi ENE 6.9 mph - N/A   Scattered Clouds
4:55 PM 80.6 °F 82.3 °F 64.4 °F 58% 30.03 in 10.0 mi NNE 10.4 mph - N/A   Clear
5:15 PM 80.6 °F 82.3 °F 64.4 °F 58% 30.03 in 10.0 mi ENE 4.6 mph - N/A   Clear
5:35 PM 78.8 °F - 64.4 °F 61% 30.03 in 10.0 mi NE 5.8 mph - N/A   Scattered Clouds
5:55 PM 78.8 °F - 64.4 °F 61% 30.03 in 10.0 mi ENE 5.8 mph - N/A   Scattered Clouds
6:15 PM 77.0 °F - 64.4 °F 65% 30.04 in 10.0 mi NE 5.8 mph - N/A   Mostly Cloudy
6:35 PM 77.0 °F - 64.4 °F 65% 30.05 in 10.0 mi ENE 5.8 mph - N/A   Scattered Clouds
6:55 PM 77.0 °F - 64.4 °F 65% 30.05 in 10.0 mi NE 3.5 mph - N/A   Scattered Clouds
7:15 PM 77.0 °F - 64.4 °F 65% 30.05 in 10.0 mi NE 4.6 mph - N/A   Clear
7:35 PM 75.2 °F - 64.4 °F 69% 30.06 in 10.0 mi NE 4.6 mph - N/A   Clear
7:55 PM 75.2 °F - 64.4 °F 69% 30.06 in 10.0 mi Calm Calm - N/A   Clear
8:15 PM 73.4 °F - 64.4 °F 73% 30.06 in 10.0 mi Calm Calm - N/A   Clear
8:35 PM 71.6 °F - 66.2 °F 83% 30.06 in 10.0 mi Calm Calm - N/A   Clear
8:55 PM 71.6 °F - 66.2 °F 83% 30.07 in 10.0 mi NNE 3.5 mph - N/A   Clear
9:15 PM 71.6 °F - 64.4 °F 78% 30.08 in 10.0 mi NE 3.5 mph - N/A   Clear
9:35 PM 71.6 °F - 66.2 °F 83% 30.09 in 10.0 mi NE 3.5 mph - N/A   Clear
9:55 PM 69.8 °F - 66.2 °F 88% 30.10 in 10.0 mi NE 3.5 mph - N/A   Clear
10:15 PM 69.8 °F - 66.2 °F 88% 30.11 in 10.0 mi Calm Calm - N/A   Clear
10:35 PM 69.8 °F - 64.4 °F 83% 30.11 in 10.0 mi NNE 3.5 mph - N/A   Clear
10:55 PM 69.8 °F - 64.4 °F 83% 30.11 in 10.0 mi Calm Calm - N/A   Clear
11:15 PM 69.8 °F - 64.4 °F 83% 30.12 in 10.0 mi Calm Calm - N/A   Scattered Clouds
11:35 PM 68.0 °F - 66.2 °F 94% 30.11 in 10.0 mi Calm Calm - N/A   Scattered Clouds
11:55 PM 68.0 °F - 66.2 °F 94% 30.12 in 10.0 mi Calm Calm - N/A   Scattered Clouds